Weather in Amgun

Russia / Khabarovsk Krai     51°24′53″N   135°04′59″E
temp.,
°C
wind,
m/s
gust,
m/s
humid.,
%
clouds,
%
prec.,
mm/h
press.,
hPa
HPBL,
m
27 february, sat
sat2701:00−19wnw33830 0.0 103244
04:00−19wnw33820 0.0 103242
07:00−19wnw33780 0.0 103234
10:00−14w22777 0.0 1030108
13:00−8ssw116793 0.0 1026395
16:00−8ssw127196 0.0 1022419
19:00−12ese1192100 0.0 102022
22:00−13sse1195100 0.0 101824
28 february, sun
sun2801:00−15wsw1195100 0.1 101520
04:00−15wnw1289100 0.2 101321
07:00−15nw23835 0.0 101427
10:00−11w24782 0.0 1013317
13:00−9w410664 0.0 10141219
16:00−12w513683 0.0 10151263
19:00−20wnw23817 0.0 101984
22:00−24wnw33834 0.0 102239
1 march, mon
mon101:00−26wnw33850 0.0 102463
04:00−27wnw33830 0.0 102650
07:00−28wnw43830 0.0 102885
10:00−24w39720 0.0 1028840
13:00−22w410680 0.0 10271169
16:00−22w512695 0.0 10261263
19:00−26w348311 0.0 1028135
22:00−28w316797 0.0 1030868
2 march, tue
tue201:00−30wnw23868 0.0 103138
04:00−32wnw338510 0.0 103231
07:00−32wnw338511 0.0 103334
10:00−26wsw29748 0.0 1032880
13:00−21w411580 0.0 10291581
16:00−20w49610 0.0 10271518
19:00−25wnw22770 0.0 102820
22:00−27nw33820 0.0 103026
3 march, wed
wed301:00−27nw33830 0.0 102926
04:00−27nw22820 0.0 102823
07:00−26wnw22832 0.0 102620
10:00−19s118024 0.0 1023185
13:00−15s238238 0.0 1018586
16:00−14e129170 0.3 1014412
19:00−17nnw1197100 0.4 101420
22:00−19w119596 0.4 101420